Orbital Elements at Epoch 2459000.5 (2020-May-31.0) TDB
Reference: JPL 10 (heliocentric ecliptic J2000)
Element | Value | Uncertainty (1-sigma) | Units |
e | .05538878310587062 | 2.0795e-07 | |
a | 2.887371441471664 | 4.3865e-08 | au |
q | 2.727443450953905 | 5.8756e-07 | au |
i | 5.147638976775238 | 2.8148e-05 | deg |
node | 209.0261222978091 | 8.6531e-05 | deg |
peri | 107.5835913003383 | 0.00036397 | deg |
M | 111.4346690460772 | 0.00035889 | deg |
tp | 2458445.784579956148 (2018-Nov-23.28457996) | 0.0017818 | TDB |
period | 1792.059445460493 4.91 | 4.0837e-05 1.118e-07 | d yr |
n | .2008861932074432 | 4.5778e-09 | deg/d |
Q | 3.047299431989423 | 4.6295e-08 | au |
|
| | Orbit Determination Parameters
Additional Information
|